| time (UTC) | temp C | wind direction | speed KPH | gust KPH | rain 1hr cm | rain 24hr cm | rain mn cm | humidity % | barometer mb |
| 20260506070107 | 10 | 360 | 1.6 | 6.4 | 0.00 | 0.00 | 0.00 | 60 | 1011.1 |
| 20260506061609 | 10 | 355 | 1.6 | 6.4 | 0.00 | 0.00 | 0.00 | 57 | 1011.2 |
| 20260506060152 | 10 | 10 | 1.6 | 6.4 | 0.00 | 0.00 | 0.00 | 56 | 1011.2 |
| 20260506050126 | 8 | 355 | 0.0 | 4.8 | 0.00 | 0.00 | 0.00 | 54 | 1011.3 |
| 20260506044619 | 8 | 355 | 0.0 | 4.8 | 0.00 | 0.00 | 0.00 | 52 | 1011.4 |
| 20260506043034 | 8 | 5 | 0.0 | 4.8 | 0.00 | 0.00 | 0.00 | 50 | 1011.4 |
| 20260506041557 | 8 | 347 | 0.0 | 4.8 | 0.00 | 0.00 | 0.00 | 50 | 1011.4 |
| 20260506040149 | 8 | 325 | 0.0 | 1.6 | 0.00 | 0.00 | 0.00 | 54 | 1011.3 |
| 20260506034608 | 8 | 360 | 0.0 | 8.0 | 0.00 | 0.00 | 0.00 | 54 | 1011.3 |
| 20260506033006 | 8 | 355 | 1.6 | 4.8 | 0.00 | 0.00 | 0.00 | 57 | 1011.4 |
| 20260506031626 | 8 | 348 | 0.0 | 4.8 | 0.00 | 0.00 | 0.00 | 57 | 1011.4 |
| 20260506030019 | 8 | 360 | 0.0 | 6.4 | 0.00 | 0.00 | 0.00 | 57 | 1011.7 |
| 20260506024554 | 8 | 355 | 1.6 | 9.7 | 0.00 | 0.00 | 0.00 | 58 | 1011.6 |
| 20260506023056 | 8 | 12 | 1.6 | 8.0 | 0.00 | 0.00 | 0.00 | 60 | 1011.6 |
| 20260506021602 | 8 | 5 | 0.0 | 4.8 | 0.00 | 0.00 | 0.00 | 63 | 1011.7 |
| 20260506020110 | 8 | 360 | 1.6 | 6.4 | 0.00 | 0.00 | 0.00 | 64 | 1011.9 |
| 20260506014557 | 8 | 5 | 0.0 | 6.4 | 0.00 | 0.00 | 0.00 | 65 | 1011.8 |
| 20260506013138 | 8 | 5 | 0.0 | 3.2 | 0.00 | 0.00 | 0.00 | 65 | 1011.8 |
| 20260506011608 | 8 | 347 | 0.0 | 8.0 | 0.00 | 0.00 | 0.00 | 66 | 1011.7 |
| 20260506010152 | 8 | 355 | 1.6 | 9.7 | 0.00 | 0.00 | 0.00 | 67 | 1011.7 |
| 20260506004619 | 8 | 355 | 3.2 | 8.0 | 0.00 | 0.00 | 0.00 | 67 | 1011.6 |
| 20260506003010 | 8 | 28 | 0.0 | 8.0 | 0.00 | 0.00 | 0.00 | 70 | 1011.6 |
| 20260506001546 | 8 | 344 | 1.6 | 9.7 | 0.00 | 0.00 | 0.00 | 71 | 1011.7 |
| 20260506000050 | 8 | 360 | 3.2 | 8.0 | 0.00 | 0.00 | 0.00 | 72 | 1011.5 |
| 20260505234544 | 8 | 15 | 1.6 | 8.0 | 0.00 | 0.00 | 0.00 | 71 | 1011.4 |
| 20260505233103 | 8 | 22 | 3.2 | 6.4 | 0.00 | 0.00 | 0.00 | 70 | 1011.5 |
| 20260505231605 | 8 | 355 | 1.6 | 8.0 | 0.00 | 0.00 | 0.00 | 71 | 1011.6 |
| 20260505230053 | 7 | 355 | 1.6 | 8.0 | 0.00 | 0.00 | 0.00 | 71 | 1011.7 |
| 20260505224624 | 6 | 5 | 0.0 | 3.2 | 0.00 | 0.00 | 0.00 | 72 | 1011.8 |
| 20260505223200 | 6 | 340 | 0.0 | 3.2 | 0.00 | 0.00 | 0.00 | 73 | 1011.8 |
| 20260505221615 | 6 | 360 | 0.0 | 4.8 | 0.00 | 0.00 | 0.00 | 76 | 1011.8 |
| 20260505220013 | 6 | 9 | 0.0 | 3.2 | 0.00 | 0.00 | 0.00 | 76 | 1011.9 |
| 20260505214603 | 5 | 9 | 0.0 | 3.2 | 0.00 | 0.00 | 0.00 | 76 | 1011.8 |
| 20260505213108 | 5 | 13 | 0.0 | 3.2 | 0.00 | 0.00 | 0.00 | 75 | 1012.0 |
| 20260505211609 | 5 | 360 | 0.0 | 3.2 | 0.00 | 0.00 | 0.00 | 75 | 1012.0 |
| 20260505210150 | 5 | 360 | 0.0 | 1.6 | 0.00 | 0.00 | 0.00 | 75 | 1012.1 |
| 20260505204611 | 6 | 360 | 0.0 | 1.6 | 0.00 | 0.00 | 0.00 | 75 | 1012.0 |
| 20260505203148 | 6 | 360 | 0.0 | 0.0 | 0.00 | 0.00 | 0.00 | 73 | 1012.0 |
| 20260505201602 | 6 | 360 | 0.0 | 1.6 | 0.00 | 0.00 | 0.00 | 72 | 1012.1 |
| 20260505200140 | 7 | 360 | 0.0 | 0.0 | 0.00 | 0.00 | 0.00 | 70 | 1012.1 |
| 20260505194605 | 7 | 360 | 0.0 | 1.6 | 0.00 | 0.00 | 0.00 | 69 | 1012.2 |
| 20260505193154 | 7 | 5 | 0.0 | 3.2 | 0.00 | 0.00 | 0.00 | 69 | 1012.2 |
| 20260505191621 | 7 | 355 | 0.0 | 1.6 | 0.00 | 0.00 | 0.00 | 67 | 1012.1 |
| 20260505190153 | 8 | 344 | 0.0 | 1.6 | 0.00 | 0.00 | 0.00 | 66 | 1011.9 |
| 20260505184604 | 8 | 344 | 0.0 | 0.0 | 0.00 | 0.00 | 0.00 | 64 | 1012.0 |
| 20260505183156 | 8 | 344 | 0.0 | 1.6 | 0.00 | 0.00 | 0.00 | 62 | 1012.0 |
| 20260505181505 | 9 | 338 | 0.0 | 3.2 | 0.00 | 0.00 | 0.00 | 61 | 1011.7 |
| 20260505180105 | 9 | 348 | 0.0 | 1.6 | 0.00 | 0.00 | 0.00 | 59 | 1011.6 |
| 20260505174606 | 10 | 348 | 0.0 | 3.2 | 0.00 | 0.00 | 0.00 | 57 | 1011.8 |
| 20260505173154 | 10 | 355 | 0.0 | 3.2 | 0.00 | 0.00 | 0.00 | 60 | 1011.8 |
| 20260505171620 | 10 | 351 | 1.6 | 6.4 | 0.00 | 0.00 | 0.00 | 57 | 1011.8 |
| 20260505170044 | 10 | 5 | 1.6 | 4.8 | 0.00 | 0.00 | 0.00 | 56 | 1011.9 |
| 20260505164541 | 10 | 5 | 0.0 | 6.4 | 0.00 | 0.00 | 0.00 | 56 | 1011.8 |
| 20260505163058 | 10 | 10 | 0.0 | 6.4 | 0.00 | 0.00 | 0.00 | 55 | 1011.8 |
| 20260505161605 | 10 | 72 | 0.0 | 8.0 | 0.00 | 0.00 | 0.00 | 58 | 1011.9 |
| 20260505160154 | 10 | 28 | 1.6 | 4.8 | 0.00 | 0.00 | 0.00 | 62 | 1012.0 |
| 20260505153155 | 10 | 5 | 1.6 | 8.0 | 0.00 | 0.00 | 0.00 | 58 | 1011.9 |
| 20260505151619 | 10 | 360 | 1.6 | 6.4 | 0.00 | 0.00 | 0.00 | 55 | 1011.9 |
| 20260505150152 | 11 | 67 | 1.6 | 6.4 | 0.00 | 0.00 | 0.00 | 57 | 1011.9 |
| 20260505140115 | 11 | 24 | 1.6 | 8.0 | 0.00 | 0.00 | 0.00 | 62 | 1012.2 |
| 20260505130148 | 11 | 5 | 1.6 | 8.0 | 0.00 | 0.00 | 0.00 | 61 | 1012.1 |
| 20260505124616 | 11 | 325 | 0.0 | 9.7 | 0.00 | 0.00 | 0.00 | 64 | 1012.1 |
| 20260505123001 | 11 | 25 | 3.2 | 12.9 | 0.00 | 0.00 | 0.00 | 65 | 1012.3 |
| 20260505121624 | 11 | 11 | 3.2 | 8.0 | 0.00 | 0.00 | 0.00 | 64 | 1012.3 |
| 20260505120154 | 11 | 28 | 1.6 | 4.8 | 0.00 | 0.00 | 0.00 | 62 | 1012.4 |
| 20260505114615 | 11 | 330 | 0.0 | 6.4 | 0.00 | 0.00 | 0.00 | 62 | 1012.3 |
| 20260505113157 | 11 | 47 | 0.0 | 11.3 | 0.00 | 0.00 | 0.00 | 64 | 1012.4 |
| 20260505111623 | 10 | 5 | 1.6 | 12.9 | 0.00 | 0.00 | 0.00 | 64 | 1012.4 |
| 20260505101624 | 11 | 360 | 1.6 | 6.4 | 0.00 | 0.00 | 0.00 | 63 | 1012.3 |
| 20260505100045 | 11 | 15 | 0.0 | 6.4 | 0.00 | 0.00 | 0.00 | 62 | 1012.4 |
| 20260505094547 | 11 | 19 | 1.6 | 8.0 | 0.00 | 0.00 | 0.00 | 63 | 1012.4 |
| 20260505093100 | 11 | 336 | 1.6 | 6.4 | 0.00 | 0.00 | 0.00 | 66 | 1012.4 |
| 20260505091510 | 10 | 24 | 0.0 | 6.4 | 0.00 | 0.00 | 0.00 | 67 | 1012.3 |
| 20260505090051 | 10 | 35 | 1.6 | 4.8 | 0.00 | 0.00 | 0.00 | 70 | 1012.4 |
| 20260505084507 | 10 | 340 | 6.4 | 9.7 | 0.00 | 0.00 | 0.00 | 70 | 1012.3 |
| 20260505083102 | 10 | 9 | 0.0 | 8.0 | 0.00 | 0.00 | 0.00 | 73 | 1012.3 |
| 20260505081548 | 9 | 16 | 1.6 | 9.7 | 0.00 | 0.00 | 0.00 | 71 | 1012.2 |
| 20260505080106 | 9 | 348 | 0.0 | 8.0 | 0.00 | 0.00 | 0.00 | 74 | 1012.2 |
| 20260505074606 | 9 | 36 | 3.2 | 12.9 | 0.00 | 0.00 | 0.00 | 73 | 1012.1 |
| 20260505073154 | 9 | 319 | 1.6 | 4.8 | 0.00 | 0.00 | 0.00 | 71 | 1012.0 |
| 20260505071622 | 9 | 338 | 1.6 | 4.8 | 0.00 | 0.00 | 0.00 | 71 | 1011.9 |